Location: Feigenhofen
(48.4939°N, 10.7793°E)
Time: 16:39:39
(UTC+00:00)

Cosmos 614 Rocket - Pass Details

Date: 26 May 2022
Orbit: 732 x 764 km, 74.1° (Epoch: 29 June)

Event Time Altitude Azimuth Distance (km) Brightness Sun altitude
Rises 01:54:56 0° 333° (NNW) 3,216 7.6 -11.7°
Reaches altitude 10° 01:57:20 10° 328° (NNW) 2,292 6.7 -11.4°
Maximum altitude 02:02:22 52° 254° (WSW) 946 4.2 -10.9°
Drops below altitude 10° 02:07:23 10° 179° (S) 2,290 6.0 -10.4°
Enters shadow 02:09:14 - 175° (S) 2,994 6.7 -10.2°
